EHI
0 0 0 0 0 0 0 0 0 0 0 0 0 0 0 0 0 0 0 0 0 0 0 0 0 0 0 0 0 0 0 0 0 0 0 0 0 0 0 0 0 0 0 0 0 0 0 0 0
0 0 0 0 0 0 0 0 0 0 0 0 0 0 0 0 0 0 0 0 0 0 0 0 0 0 0 0 0 0 0 0 0 0 0 0 0 0 0 0 0 0 0 0 0 0 0 0 0
0 0 0 0 0 0 0 0 0 0 0 0 0 0 0 0 0 0 0 0 0 0 0 0 0 0 0 0 0 0 0 0 0 0 0 0 0 0 0 0 0 0 0 0 0 0 0 0 0
0 0 0 0 0 0 0 0 0 0 0 0 0 0 0 0 0 0 0 0 0 0 0 0 0 0 0 0 0 0 0 0 0 0 0 0 0 0 0 0 0 0 0 0 0 0 0 0 0
0 0 0 0 0 0 0 0 0 0 0 0 0 0 0 0 0 0 0 0 0 0 0 0 0 0 0 0 0 0 0 0 0 0 0 0 0 0 0 0 0 0 0 0 0 0 0 0 0
0 0 0 0 0 0 0 0 0 0 0 0 0 0 0 0 0 0 0 0 0 0 0 0 0 0 0 0 0 0 0 0 0 0 0 0 0 0 0 0 0 0 0 0 0 0 0 0 0
0 0 0 0 0 0 0 0 0 0 0 0 0 0 0 0 0 0 0 0 0 0 0 0 0 0 0 0 0 0 0 0 0 0 0 0 0 0 0 0 0 0 0 0 0 0 0 0 0
0 0 0 0 0 0 0 0 0 0 0 0 0 0 0 0 0 0 0 0 0 0 0 0 0 0 0 0 0 0 0 0 0 0 0 0 0 0 0 0 0 0 0 0 0 0 0 0 0
0 0 0 0 0 0 0 0 0 0 0 0 0 0 0 0 0 0 0 0 0 0 0 0 0 0 0 0 0 0 0 0 0 0 0 0 0 0 0 0 0 0 0 0 0 0 0 0 0
0 0 0 0 0 0 0 0 0 0 0 0 0 0 0 0 0 0 0 0 0 0 0 0 0 0 0 0 0 0 0 0 0 0 0 0 0 0 0 0 0 0 0 0 0 0 0 0 0
0 0 0 0 0 0 0 0 0 0 0 0 0 0 0 0 0 0 0 0 0 0 0 0 0 0 0 0 0 0 0 0 0 0 0 0 0 0 0 0 0 0 0 0 0 0 0 0 0
0 0 0 0 0 0 0 0 0 0 0 0 0 0 0 0 0 0 0 0 0 0 0 0 0 0 0 0 0 0 0 0 0 0 0 0 0 0 0 0 0 0 0 0 0 0 0 0 0
0 0 0 0 0 0 0 0 0 0 0 0 0 0 0 0 0 0 0 0 0 0 0 0 0 0 0 0 0 0 0 0 0 0 0 0 0 0 0 0 0 0 0 0 0 0 0 0 0
0 0 0 0 0 0 0 0 0 0 0 0 0 0 0 0 0 0 0 0 0 0 0 0 0 0 0 0 0 0 0 0 0 0 0 0 0 0 0 0 0 0 0 0 0 0 0 0 0
0 0 0 0 0 0 0 0 0 0 0 0 0 0 0 0 0 0 0 0 0 0 0 0 0 0 0 0 0 0 0 0 0 0 0 0 0 0 0 0 0 0 0 0 0 0 0 0 0
0 0 0 0 0 0 0 0 0 0 0 0 0 0 0 0 0 0 0 0 0 0 0 0 0 0 0 0 0 0 0 0 0 0 0 0 0 0 0 0 0 0 0 0 0 0 0 0 0
0 0 0 0 0 0 0 0 0 0 0 0 0 0 0 0 0 0 0 0 0 0 0 0 0 0 0 0 0 0 0 0 0 0 0 0 0 0 0 0 0 0 0 0 0 0 0 0 0
0 0 0 0 0 0 0 0 0 0 0 0 0 0 0 0 0 0 0 0 0 0 0 0 0 0 0 0 0 0 0 0 0 0 0 0 0 0 0 0 0 0 0 0 0 0 0 0 0
0 0 0 0 0 0 0 0 0 0 0 0 0 0 0 0 0 0 0 0 0 0 0 0 0 0 0 0 0 0 0 0 0 0 0 0 0 0 0 0 0 0 0 0 0 0 0 0 0
0 0 0 0 0 0 0 0 0 0 0 0 0 0 0 0 0 0 0 0 0 0 0 0 0 0 0 0 0 0 0 0 0 0 0 0 0 0 0 0 0 0 0 0 0 0 0 0 0
0 0 0 0 0 0 0 0 0 0 0 0 0 0 0 0 0 0 0 0 0 0 0 0 0 0 0 0 0 0 0 0 0 0 0 0 0 0 0 0 0 0 0 0 0 0 0 0 0
0 0 0 0 0 0 0 0 0 0 0 0 0 0 0 0 0 0 0 0 0 0 0 0 0 0 0 0 0 0 0 0 0 0 0 0 0 0 0 0 0 0 0 0 0 0 0 0 0
0 0 0 0 0 0 0 0 0 0 0 0 0 0 0 0 0 0 0 0 0 0 0 0 0 0 0 0 0 0 0 0 0 0 0 0 0 0 0 0 0 0 0 0 0 0 0 0 0
0 0 0 0 0 0 0 0 0 0 0 0 0 0 0 0 0 0 0 0 0 0 0 0 0 0 0 0 0 0 0 0 0 0 0 0 0 0 0 0 0 0 0 0 0 0 0 0 0
0 0 0 0 0 0 0 0 0 0 0 0 0 0 0 0 0 0 0 0 0 0 0 0 0 0 0 0 0 0 0 0 0 0 0 0 0 0 0 0 0 0 0 0 0 0 0 0 0
0 0 0 0 0 0 0 0 0 0 0 0 0 0 0 0 0 0 0 0 0 0 0 0 0 0 0 0 0 0 0 0 0 0 0 0 0 0 0 0 0 0 0 0 0 0 0 0 0
0 0 0 0 0 0 0 0 0 0 0 0 0 0 0 0 0 0 0 0 0 0 0 0 0 0 0 0 0 0 0 0 0 0 0 0 0 0 0 0 0 0 0 0 0 0 0 0 0
0 0 0 0 0 0 0 0 0 0 0 0 0 0 0 0 0 0 0 0 0 0 0 0 0 0 0 0 0 0 0 0 0 0 0 0 0 0 0 0 0 0 0 0 0 0 0 0 0
0 0 0 0 0 0 0 0 0 0 0 0 0 0 0 0 0 0 0 0 0 0 0 0 0 0 0 0 0 0 0 0 0 0 0 0 0 0 0 0 0 0 0 0 0 0 0 0 0
0 0 0 0 0 0 0 0 0 0 0 0 0 0 0 0 0 0 0 0 0 0 0 0 0 0 0 0 0 0 0 0 0 0 0 0 0 0 0 0 0 0 0 0 0 0 0 0 0
Wind_Speed
7 3 3 5 8 7 2 1 3 3 1 1 2 5 7 4 3 3 1 2 4 6 6 8 10 11 12 12 12 13 14 14 15 15 15 15 15 15 15 15 15 15 15 16 16 16 17 17 18
3 3 6 7 7 3 2 2 3 4 5 4 3 4 3 2 0 2 0 1 5 7 6 6 10 11 12 12 12 12 13 14 14 14 14 14 15 15 15 15 15 15 16 16 17 17 18 18 19
1 5 6 6 5 6 5 3 4 3 4 3 3 2 3 2 0 0 0 3 5 6 6 7 10 11 12 12 12 12 13 13 13 14 14 14 14 14 15 15 15 16 16 17 17 17 18 18 18
4 6 7 6 2 4 4 3 5 6 2 2 4 3 0 0 2 2 0 4 7 6 5 7 10 11 12 12 12 12 13 13 13 13 13 13 13 14 14 15 15 16 16 17 17 17 18 18 18
5 6 7 4 1 2 2 3 6 5 4 3 4 4 1 2 2 1 3 5 7 6 5 5 9 9 10 11 12 12 12 13 13 13 13 12 12 13 13 14 15 16 16 17 17 18 18 19 19
6 6 6 2 2 2 1 4 5 3 4 4 6 5 2 1 1 1 3 4 5 5 4 4 7 8 9 9 10 11 12 12 12 13 12 12 12 12 13 14 15 16 16 17 18 18 19 19 20
6 6 5 6 3 1 1 5 6 5 5 5 7 6 2 2 1 2 4 5 4 4 4 3 3 4 7 8 8 9 10 11 11 12 11 10 10 11 11 12 14 15 16 17 18 18 19 20 20
6 7 4 4 5 4 2 4 3 6 5 2 5 6 6 5 5 4 5 5 4 4 3 3 2 2 3 4 7 9 10 11 11 11 10 10 9 9 9 9 12 14 15 16 17 18 19 20 20
4 7 4 7 8 5 4 4 2 2 5 1 2 3 2 6 7 6 4 3 3 2 2 2 2 1 2 2 4 6 8 9 10 9 11 9 5 5 6 8 11 13 14 16 17 18 19 18 19
6 5 8 6 7 4 5 5 7 5 3 2 2 1 3 6 7 9 7 7 5 4 1 1 1 1 1 2 3 3 3 4 5 5 7 5 5 4 6 9 11 12 13 15 17 18 16 13 8
4 6 4 2 3 3 5 4 6 8 5 9 10 9 8 6 7 9 9 7 6 3 2 0 0 0 1 1 2 2 2 3 4 6 6 5 5 4 4 4 5 7 8 7 9 10 7 7 7
4 1 2 2 1 3 5 6 5 7 8 2 5 7 9 10 12 12 11 7 4 4 3 1 1 1 1 2 2 3 3 3 3 4 6 6 4 4 4 3 3 4 4 5 5 5 7 9 9
2 1 1 1 1 2 4 3 4 6 2 1 4 9 11 11 10 7 6 5 5 5 4 2 1 2 2 2 2 2 3 3 4 4 5 6 6 5 5 4 4 4 4 5 5 6 8 9 9
2 2 0 0 0 0 2 1 2 7 2 2 5 9 10 10 9 6 7 8 8 6 5 3 2 3 3 3 3 3 3 3 3 3 5 6 6 6 6 6 5 5 5 5 6 7 8 8 9
2 2 2 1 2 1 2 5 8 4 4 4 6 8 8 9 8 10 9 8 8 6 4 4 3 3 4 4 4 3 3 3 3 3 5 6 6 7 7 6 5 5 6 7 7 8 8 9 9
4 4 2 4 1 1 4 9 7 2 6 8 8 8 9 9 10 9 8 7 7 6 5 4 3 4 4 5 5 4 3 3 3 3 4 6 7 8 7 6 6 6 6 6 7 7 9 8 8
3 0 3 5 1 2 4 9 6 2 5 9 9 9 9 9 11 11 9 9 8 7 6 6 5 5 5 6 5 5 4 4 3 3 4 6 8 8 8 7 6 7 6 6 7 6 7 9 9
5 4 4 5 2 3 5 10 10 4 6 10 9 9 10 13 19 11 9 8 8 7 7 7 6 7 7 6 5 5 5 4 3 3 4 6 7 8 9 7 8 7 7 7 8 10 7 7 8
6 5 5 6 3 4 8 12 14 7 6 10 12 12 14 19 15 8 9 9 8 8 8 9 9 9 8 5 4 5 4 3 3 3 5 6 7 8 8 8 8 7 8 9 10 11 10 6 5
4 4 5 6 2 5 7 12 12 10 10 13 14 15 16 16 11 11 10 11 12 12 11 11 11 11 10 5 3 3 4 4 3 3 4 5 6 7 8 9 8 7 9 10 10 10 6 3 1
5 7 7 6 3 3 4 11 8 9 7 8 11 13 14 17 18 14 13 14 14 15 15 13 13 11 10 8 6 6 5 4 3 3 3 3 5 6 7 8 8 8 8 9 8 8 9 6 2
8 9 7 4 2 6 3 7 9 7 8 10 14 14 18 19 16 12 13 15 17 17 13 12 13 12 11 11 10 10 8 6 5 4 4 4 5 6 7 8 8 7 6 8 7 5 5 7 5
7 3 5 3 4 5 3 6 11 5 9 13 15 17 18 16 13 13 14 16 14 12 12 12 12 12 12 12 12 10 7 6 6 6 7 6 4 5 6 7 8 7 6 7 7 6 6 4 5
7 7 5 5 3 8 8 10 12 9 12 12 12 13 13 10 8 9 8 9 10 11 12 13 14 13 13 13 12 11 12 12 12 11 9 6 4 4 5 6 7 7 7 7 7 7 8 6 6
5 6 2 3 2 12 5 9 15 11 11 12 13 12 8 5 5 5 7 10 12 14 15 14 15 14 13 13 13 11 12 15 17 15 12 10 7 4 6 7 7 6 7 7 7 8 7 7 8
9 12 11 9 8 8 3 13 13 9 8 10 11 11 8 7 5 6 8 10 12 14 15 16 16 14 14 14 12 10 12 10 10 12 12 12 9 7 8 8 7 8 8 8 7 7 6 6 7
8 8 7 5 2 6 11 11 11 7 10 14 13 10 11 9 7 7 7 9 11 13 15 15 15 13 14 13 12 11 12 10 10 11 9 8 8 8 10 9 9 8 8 8 8 7 7 7 6
7 9 6 7 7 9 11 9 9 9 15 13 9 10 11 6 5 6 6 8 9 10 10 11 12 13 12 12 12 11 11 10 10 11 12 10 10 10 11 10 10 9 8 8 7 7 7 7 6
8 7 7 6 6 8 9 14 11 12 11 10 11 10 7 6 6 6 6 6 7 7 9 10 11 11 12 13 12 12 12 10 11 10 11 12 11 12 13 12 11 11 9 8 8 7 8 9 7
7 10 11 9 8 6 7 19 5 9 7 7 8 6 4 4 4 5 6 7 8 9 10 11 12 12 13 13 12 13 12 12 13 12 11 11 12 12 12 12 11 11 10 9 10 10 9 9 10
Wind_Direction
334 354 61 55 54 51 93 209 174 157 133 51 110 131 144 149 160 168 190 131 144 142 142 139 133 130 128 123 119 114 109 103 98 93 87 81 77 74 71 70 70 70 71 72 72 73 75 79 79
328 20 53 58 82 85 266 243 183 182 155 126 78 94 102 96 25 106 53 149 140 138 133 133 132 131 130 127 124 119 113 108 103 97 91 85 79 75 72 71 70 71 72 74 75 76 79 81 80
46 50 76 71 102 166 197 208 172 113 130 114 96 74 128 141 319 210 236 146 126 126 127 136 136 136 134 131 127 124 119 115 110 104 97 90 83 78 75 73 72 72 74 76 77 78 81 81 79
73 47 54 71 117 204 202 184 159 127 127 92 117 103 45 9 278 280 211 133 124 124 127 141 142 142 140 138 135 132 129 124 119 112 105 97 89 83 78 76 75 75 76 77 78 79 81 80 77
58 73 60 52 312 251 228 173 165 151 148 127 128 137 197 329 329 341 130 130 134 131 133 145 144 144 146 147 144 141 139 134 128 122 115 106 98 90 84 81 79 78 78 79 79 79 79 76 73
59 68 87 157 265 314 203 159 160 135 133 138 134 142 204 325 18 69 111 113 124 133 134 139 147 147 149 151 151 149 147 143 139 133 127 119 109 99 91 86 83 81 80 79 79 79 78 76 73
104 97 144 173 180 264 198 145 162 148 156 181 156 137 238 246 175 103 98 96 94 104 114 114 128 147 156 157 156 157 154 151 147 143 136 127 116 105 95 90 87 84 81 80 79 79 78 76 74
114 100 104 167 176 226 183 142 160 157 158 134 152 155 209 208 145 118 95 89 90 87 93 95 99 119 145 162 168 164 162 159 155 148 142 136 125 111 99 91 90 87 84 82 81 80 79 77 75
84 81 163 200 187 222 179 138 105 72 117 138 229 219 224 133 133 134 120 112 118 104 81 77 87 103 133 157 169 166 162 162 157 151 147 139 126 116 102 97 92 88 86 85 84 83 81 78 75
80 133 206 199 190 201 181 169 163 137 137 208 238 217 124 135 155 166 174 178 179 178 154 69 71 96 147 149 145 147 150 154 151 149 150 140 131 121 112 99 91 84 81 83 84 84 80 77 69
98 166 193 185 191 181 170 171 163 142 195 214 205 193 166 169 177 185 189 188 190 183 184 159 21 289 176 155 150 146 143 146 150 153 153 141 130 123 112 103 93 84 78 75 78 76 71 74 74
98 153 168 185 175 161 171 155 177 194 210 261 227 169 171 180 191 194 193 193 187 191 207 210 283 251 209 169 161 154 150 152 156 160 158 150 143 134 127 113 104 95 92 90 82 83 79 77 76
100 131 89 64 81 121 133 170 213 234 243 13 133 154 187 195 201 204 198 193 193 204 211 216 244 233 207 167 158 153 155 156 155 155 160 156 150 144 131 118 107 102 101 100 97 93 88 84 80
126 109 16 301 256 182 177 250 255 251 142 135 169 189 202 206 203 197 200 203 204 208 209 212 227 220 196 169 154 149 143 143 144 149 156 153 149 144 136 126 116 106 104 101 99 99 94 87 86
80 60 344 285 211 234 127 278 245 242 151 194 212 217 223 227 215 212 208 204 201 202 202 206 212 199 181 160 146 138 137 137 138 140 143 143 142 140 136 129 120 113 111 107 102 96 93 92 89
58 47 307 296 207 176 156 261 270 187 180 219 227 231 237 239 232 229 216 207 198 193 195 201 191 174 165 148 136 129 125 126 126 129 131 134 135 136 132 128 123 120 114 112 109 107 102 96 93
25 218 245 294 204 159 191 249 275 157 207 239 240 239 244 254 250 234 216 205 196 192 189 188 176 164 148 131 120 113 111 108 113 119 125 130 132 134 130 126 125 122 113 110 114 108 112 110 103
213 209 229 256 243 171 224 254 269 223 216 245 251 247 245 247 245 228 211 202 194 190 188 182 169 159 143 128 117 107 97 89 90 104 119 126 128 130 126 124 126 124 118 114 116 112 103 110 113
161 176 221 248 236 193 238 256 267 252 225 246 248 243 241 245 247 219 202 192 189 190 188 185 175 168 159 151 150 141 127 110 94 91 106 121 129 131 130 129 129 129 126 129 128 121 111 105 116
155 191 241 273 248 208 259 267 262 248 227 228 234 238 239 244 245 220 201 194 195 194 192 189 184 178 177 166 140 126 121 109 92 90 91 106 124 131 134 135 134 131 127 128 134 131 120 108 69
204 204 218 233 327 274 288 292 268 264 238 246 239 239 240 238 241 227 206 203 199 199 195 192 187 181 177 158 135 116 105 102 107 110 101 93 114 123 130 134 133 135 137 143 147 146 137 137 76
230 218 205 209 250 278 208 279 279 262 266 253 249 243 243 243 239 228 207 204 205 203 191 188 183 180 175 166 167 165 163 160 163 148 133 114 110 121 127 130 130 131 133 139 143 139 131 133 135
202 145 158 174 197 272 224 243 268 264 265 257 249 245 244 243 234 228 213 209 204 191 185 185 180 181 176 176 179 179 162 138 135 132 131 122 113 118 127 131 129 130 131 132 130 128 127 126 137
132 87 73 57 89 265 208 207 261 210 222 242 247 246 247 249 239 231 213 194 188 181 182 182 183 184 179 179 182 184 164 151 150 152 149 141 133 124 131 130 129 130 130 131 131 127 123 120 120
139 112 38 313 270 251 187 217 250 223 222 226 243 255 258 263 245 226 202 192 187 185 186 187 186 185 181 181 184 183 172 166 165 163 161 158 156 156 161 146 140 134 130 128 125 121 120 123 124
186 163 178 205 229 269 219 234 251 244 254 260 259 266 280 270 249 232 212 198 192 189 188 189 190 186 181 182 183 178 173 175 171 169 165 168 167 160 160 151 143 135 132 130 124 120 121 122 121
168 214 176 149 241 281 260 263 290 267 263 253 253 261 264 260 248 235 216 200 193 191 192 192 190 184 182 182 177 176 177 178 172 169 163 162 156 152 154 151 145 140 137 136 132 131 131 128 124
159 152 131 166 203 251 268 250 242 226 232 240 245 246 253 254 242 229 213 202 195 191 188 188 189 186 178 178 178 178 179 177 171 168 168 163 158 154 156 154 149 145 144 143 135 135 138 132 131
153 173 178 172 180 189 270 265 208 209 216 222 232 234 244 244 237 223 208 195 186 180 181 186 186 179 179 180 178 175 177 173 170 175 173 167 161 160 164 161 157 156 155 152 148 149 151 145 143
198 189 164 177 216 206 240 266 179 206 219 221 239 247 249 241 231 210 194 183 184 186 188 192 191 187 184 179 177 177 175 174 176 178 174 169 167 167 166 162 161 162 163 162 162 161 163 160 161